カタログに戻る

EGYPTSAT A

運用中科学SSO
NORAD 44047·PAYLOAD·🇪🇬 Egypt

打ち上げ Feb 21, 2019 から Baikonur Cosmodrome

Loading…

次のパス (今後24時間)

TLE

最新Source: Space-Track

元期: Sep 14, 2026, 22:04 UTC

1 44047U 19008A   26257.91957137  .00000156  00000-0  32486-4 0  9990
2 44047  98.0112 321.4403 0001054  79.2802 280.8524 14.72290887406442

AllMySatでEGYPTSAT Aをリアルタイム追跡

Download on the App Store